When you browse on this site, cookies collect data to enhance your experience and personalize the content and advertising you see.
Visit our Privacy Policy to learn more. By continuing to use the site, you agree to this use of cookies and data.
  • In Hungary
  • List of Countries
  • For 7 days
  • Water Temperature
  • Satellite Maps
  • Weather Map
  • News
  • Weather Widgets
  • user-avatar
    Login

    Hourly Weather Cheltenham

    Today, 13 December, Thursday

    Time Temperature Precipitation Wind Pressure Humidity
    00:00 -1°C° 0 mm 7 mps 749 mmHg 78%
    01:00 -1°C° 0 mm 7 mps 749 mmHg 78%
    02:00 -1°C° 0 mm 7 mps 748 mmHg 79%
    03:00 -1°C° 0 mm 7 mps 748 mmHg 79%
    04:00 -1°C° 0 mm 7 mps 748 mmHg 79%
    05:00 -1°C° 0 mm 7 mps 748 mmHg 79%
    06:00 -1°C° 0 mm 7 mps 748 mmHg 79%
    07:00 -1°C° 0 mm 7 mps 748 mmHg 78%
    08:00 -1°C° 0 mm 7 mps 748 mmHg 77%
    09:00 -1°C° 0 mm 7 mps 748 mmHg 77%
    10:00 0°C° 0 mm 7 mps 749 mmHg 74%
    11:00 0°C° 0 mm 7 mps 749 mmHg 71%
    12:00 +2°C° 0 mm 7 mps 749 mmHg 69%
    13:00 +2°C° 0 mm 7 mps 749 mmHg 69%
    14:00 +2°C° 0 mm 6 mps 749 mmHg 69%
    15:00 +1°C° 0 mm 6 mps 749 mmHg 69%
    16:00 +1°C° 0 mm 5 mps 750 mmHg 70%
    17:00 0°C° 0 mm 5 mps 750 mmHg 71%
    18:00 0°C° 0 mm 5 mps 751 mmHg 72%
    19:00 -1°C° 0 mm 4 mps 751 mmHg 74%
    20:00 -1°C° 0 mm 4 mps 752 mmHg 76%
    21:00 -1°C° 0 mm 3 mps 752 mmHg 79%
    22:00 -1°C° 0 mm 3 mps 752 mmHg 80%
    23:00 -1°C° 0 mm 3 mps 753 mmHg 82%

    Tomorrow, 14 December, Friday

    Time Temperature Precipitation Wind Pressure Humidity
    00:00 -2°C° 0 mm 3 mps 753 mmHg 84%
    01:00 -2°C° 0 mm 3 mps 753 mmHg 84%
    02:00 -2°C° 0 mm 3 mps 754 mmHg 84%
    03:00 -2°C° 0 mm 3 mps 754 mmHg 84%
    04:00 -2°C° 0 mm 3 mps 754 mmHg 84%
    05:00 -2°C° 0 mm 2 mps 754 mmHg 85%
    06:00 -2°C° 0 mm 2 mps 754 mmHg 85%
    07:00 -2°C° 0 mm 2 mps 754 mmHg 84%
    08:00 -2°C° 0 mm 2 mps 755 mmHg 83%
    09:00 -2°C° 0 mm 2 mps 755 mmHg 82%
    10:00 0°C° 0 mm 3 mps 755 mmHg 77%
    11:00 0°C° 0 mm 4 mps 755 mmHg 72%
    12:00 +1°C° 0 mm 4 mps 754 mmHg 67%
    13:00 +1°C° 0 mm 4 mps 754 mmHg 68%
    14:00 +2°C° 0 mm 3 mps 754 mmHg 70%
    15:00 +2°C° 0 mm 3 mps 754 mmHg 72%
    16:00 +1°C° 0 mm 3 mps 754 mmHg 75%
    17:00 0°C° 0 mm 3 mps 754 mmHg 78%
    18:00 -2°C° 0 mm 4 mps 754 mmHg 81%
    19:00 -2°C° 0 mm 4 mps 753 mmHg 81%
    20:00 -2°C° 0 mm 4 mps 753 mmHg 80%
    21:00 -2°C° 0 mm 4 mps 753 mmHg 80%
    22:00 -1°C° 0 mm 5 mps 753 mmHg 78%
    23:00 -1°C° 0 mm 5 mps 752 mmHg 76%

    Day after tomorrow, 15 December, Saturday

    Time Temperature Precipitation Wind Pressure Humidity
    00:00 -1°C° 0 mm 5 mps 752 mmHg 74%
    01:00 -2°C° 0 mm 6 mps 751 mmHg 74%
    02:00 -1°C° 0 mm 6 mps 751 mmHg 75%
    03:00 -1°C° 0 mm 6 mps 750 mmHg 75%
    04:00 -1°C° 0 mm 7 mps 749 mmHg 74%
    05:00 0°C° 0 mm 7 mps 748 mmHg 73%
    06:00 0°C° 0 mm 8 mps 747 mmHg 72%
    07:00 0°C° 0.3 mm 8 mps 747 mmHg 73%
    08:00 0°C° 0.3 mm 9 mps 746 mmHg 74%
    09:00 0°C° 0.3 mm 9 mps 745 mmHg 76%
    10:00 +1°C° 1.2 mm 9 mps 745 mmHg 80%
    11:00 +1°C° 1.2 mm 9 mps 744 mmHg 84%
    12:00 +1°C° 1.2 mm 9 mps 743 mmHg 88%
    13:00 +2°C° 0.8 mm 8 mps 742 mmHg 90%
    14:00 +4°C° 0.8 mm 8 mps 741 mmHg 91%
    15:00 +4°C° 0.8 mm 8 mps 739 mmHg 93%
    16:00 +5°C° 2.1 mm 8 mps 738 mmHg 93%
    17:00 +6°C° 2.1 mm 9 mps 737 mmHg 93%
    18:00 +6°C° 2.1 mm 9 mps 735 mmHg 93%
    19:00 +7°C° 1.9 mm 8 mps 734 mmHg 94%
    20:00 +9°C° 1.9 mm 8 mps 733 mmHg 94%
    21:00 +10°C° 1.9 mm 7 mps 732 mmHg 94%
    22:00 +8°C° 0.5 mm 9 mps 732 mmHg 89%
    23:00 +7°C° 0.5 mm 10 mps 732 mmHg 84%

    16 December, Sunday

    Time Temperature Precipitation Wind Pressure Humidity
    00:00 +5°C° 0.5 mm 12 mps 733 mmHg 79%
    01:00 +4°C° 0.2 mm 11 mps 734 mmHg 79%
    02:00 +5°C° 0.2 mm 10 mps 735 mmHg 79%
    03:00 +4°C° 0.2 mm 8 mps 736 mmHg 79%
    04:00 +4°C° 0 mm 7 mps 737 mmHg 80%
    05:00 +3°C° 0 mm 7 mps 738 mmHg 81%
    06:00 +3°C° 0 mm 6 mps 739 mmHg 81%
    07:00 +2°C° 0 mm 5 mps 740 mmHg 83%
    08:00 +2°C° 0 mm 5 mps 741 mmHg 84%
    09:00 +3°C° 0 mm 4 mps 741 mmHg 86%
    10:00 +4°C° 0 mm 4 mps 742 mmHg 83%
    11:00 +5°C° 0 mm 5 mps 742 mmHg 80%
    12:00 +6°C° 0 mm 5 mps 742 mmHg 77%
    13:00 +6°C° 0.1 mm 4 mps 742 mmHg 79%
    14:00 +6°C° 0.1 mm 4 mps 742 mmHg 82%
    15:00 +5°C° 0.1 mm 3 mps 742 mmHg 84%
    16:00 +5°C° 0.3 mm 3 mps 743 mmHg 86%
    17:00 +6°C° 0.3 mm 2 mps 743 mmHg 89%
    18:00 +5°C° 0.3 mm 2 mps 743 mmHg 91%
    19:00 +5°C° 0.2 mm 2 mps 744 mmHg 91%
    20:00 +5°C° 0.2 mm 2 mps 744 mmHg 92%
    21:00 +5°C° 0.2 mm 2 mps 745 mmHg 92%
    22:00 +3°C° 0 mm 3 mps 745 mmHg 91%
    23:00 +3°C° 0 mm 3 mps 746 mmHg 90%

    17 December, Monday

    Time Temperature Precipitation Wind Pressure Humidity
    00:00 +2°C° 0 mm 3 mps 746 mmHg 90%
    01:00 +2°C° 0 mm 3 mps 747 mmHg 90%
    02:00 +2°C° 0 mm 3 mps 747 mmHg 90%
    03:00 +3°C° 0 mm 2 mps 747 mmHg 90%
    04:00 +3°C° 0 mm 2 mps 748 mmHg 90%
    05:00 +3°C° 0 mm 2 mps 748 mmHg 91%
    06:00 +2°C° 0 mm 3 mps 748 mmHg 92%
    07:00 +2°C° 0 mm 3 mps 749 mmHg 92%
    08:00 +2°C° 0 mm 3 mps 749 mmHg 92%
    09:00 +2°C° 0 mm 3 mps 750 mmHg 93%
    10:00 +3°C° 0 mm 3 mps 750 mmHg 90%
    11:00 +4°C° 0 mm 3 mps 750 mmHg 87%
    12:00 +6°C° 0 mm 4 mps 750 mmHg 84%
    13:00 +6°C° 0 mm 4 mps 750 mmHg 86%
    14:00 +6°C° 0 mm 4 mps 750 mmHg 87%
    15:00 +7°C° 0 mm 3 mps 750 mmHg 89%
    16:00 +6°C° 0 mm 4 mps 749 mmHg 89%
    17:00 +6°C° 0 mm 5 mps 749 mmHg 90%
    18:00 +6°C° 0 mm 5 mps 749 mmHg 91%
    19:00 +5°C° 0 mm 6 mps 749 mmHg 91%
    20:00 +5°C° 0 mm 6 mps 749 mmHg 92%
    21:00 +7°C° 0 mm 6 mps 748 mmHg 92%
    22:00 +6°C° 0 mm 7 mps 748 mmHg 91%
    23:00 +8°C° 0 mm 7 mps 747 mmHg 91%

    18 December, Tuesday

    Time Temperature Precipitation Wind Pressure Humidity
    00:00 +7°C° 0 mm 8 mps 747 mmHg 90%
    01:00 +7°C° 0.1 mm 8 mps 746 mmHg 89%
    02:00 +7°C° 0.1 mm 8 mps 746 mmHg 88%
    03:00 +8°C° 0.1 mm 9 mps 745 mmHg 87%
    04:00 +8°C° 0 mm 9 mps 744 mmHg 86%
    05:00 +8°C° 0 mm 10 mps 743 mmHg 85%
    06:00 +8°C° 0 mm 10 mps 742 mmHg 83%
    07:00 +7°C° 0.2 mm 11 mps 741 mmHg 82%
    08:00 +7°C° 0.2 mm 11 mps 740 mmHg 81%
    09:00 +7°C° 0.2 mm 11 mps 740 mmHg 80%
    10:00 +6°C° 1.2 mm 11 mps 739 mmHg 80%
    11:00 +6°C° 1.2 mm 11 mps 738 mmHg 80%
    12:00 +6°C° 1.2 mm 11 mps 737 mmHg 81%
    13:00 +6°C° 1.8 mm 11 mps 736 mmHg 83%
    14:00 +6°C° 1.8 mm 10 mps 736 mmHg 85%
    15:00 +5°C° 1.8 mm 9 mps 735 mmHg 88%
    16:00 +5°C° 0.6 mm 8 mps 735 mmHg 89%
    17:00 +5°C° 0.6 mm 6 mps 735 mmHg 89%
    18:00 +6°C° 0.6 mm 4 mps 734 mmHg 90%
    19:00 +6°C° 0 mm 5 mps 735 mmHg 89%
    20:00 +5°C° 0 mm 5 mps 735 mmHg 88%
    21:00 +5°C° 0 mm 5 mps 735 mmHg 87%
    22:00 +4°C° 0.2 mm 6 mps 735 mmHg 86%
    23:00 +4°C° 0.2 mm 6 mps 735 mmHg 85%
    Show more